UAL1157 PHNL-KLAX

Flight info

Callsign UAL1157
Flight time N/A
Altitude 39000
Route MKK5 KOLEA CLUTS R465 CIVIT R585 FLEXX/N0473F410 R585 GITLE ADUMM GALIP R585 AUDIA SNAXX RYDRR2
Aircraft B772/H-SDE2E3FGHIJ5LORVWXY/LB1D1

Departure

Time N/A
Airport Daniel K. Inouye International Airport (PHNL)

Arrival

Time 2026-04-25 23:04
Airport Los Angeles International Airport (KLAX)
Time Latitude Longitude Altitude Speed Heading
2026-04-25 22:51 34.12694 -118.91170 10446 ft 295 kts 120°
2026-04-25 22:51 34.11811 -118.88915 10390 ft 300 kts 119°
2026-04-25 22:51 34.10910 -118.86620 10302 ft 302 kts 120°
2026-04-25 22:51 34.10043 -118.84308 10257 ft 301 kts 118°
2026-04-25 22:52 34.09142 -118.82024 10182 ft 301 kts 119°
2026-04-25 22:52 34.08244 -118.79787 10105 ft 298 kts 119°
2026-04-25 22:52 34.07360 -118.77560 10028 ft 290 kts 118°
2026-04-25 22:52 34.06778 -118.76083 9996 ft 287 kts 118°
2026-04-25 22:53 34.05642 -118.73194 9724 ft 289 kts 118°
2026-04-25 22:53 34.04785 -118.71010 9514 ft 287 kts 118°
2026-04-25 22:53 34.03938 -118.68853 9252 ft 283 kts 118°
2026-04-25 22:53 34.03113 -118.66724 9010 ft 277 kts 115°
2026-04-25 22:54 34.02654 -118.64468 8813 ft 281 kts 99°
2026-04-25 22:54 34.02469 -118.62093 8616 ft 288 kts 97°
2026-04-25 22:54 34.02290 -118.59672 8401 ft 291 kts 97°
2026-04-25 22:54 34.02085 -118.57247 8179 ft 289 kts 98°
2026-04-25 22:55 34.01872 -118.54862 7943 ft 284 kts 98°
2026-04-25 22:55 34.01658 -118.52515 7708 ft 279 kts 98°
2026-04-25 22:55 34.01445 -118.50218 7467 ft 268 kts 98°
2026-04-25 22:55 34.01245 -118.48057 7216 ft 252 kts 98°
2026-04-25 22:56 34.01054 -118.45989 7015 ft 245 kts 95°
2026-04-25 22:56 34.01219 -118.43975 6821 ft 247 kts 76°
2026-04-25 22:56 34.01645 -118.41912 6653 ft 259 kts 78°
2026-04-25 22:56 34.02037 -118.39755 6405 ft 267 kts 80°
2026-04-25 22:57 34.02418 -118.37584 6183 ft 258 kts 79°
2026-04-25 22:57 34.02764 -118.35538 5916 ft 240 kts 83°
2026-04-25 22:57 34.02987 -118.33583 5489 ft 234 kts 85°
2026-04-25 22:57 34.03173 -118.31637 5232 ft 231 kts 84°
2026-04-25 22:58 34.03356 -118.29722 4978 ft 228 kts 88°
2026-04-25 22:58 34.03508 -118.27824 4718 ft 226 kts 88°
2026-04-25 22:58 34.03647 -118.25931 4533 ft 226 kts 88°
2026-04-25 22:58 34.03764 -118.24045 4301 ft 225 kts 90°
2026-04-25 22:59 34.03614 -118.22222 3853 ft 220 kts 116°
2026-04-25 22:59 34.02694 -118.20834 3444 ft 215 kts 150°
2026-04-25 22:59 34.01325 -118.20257 3114 ft 206 kts 171°
2026-04-25 22:59 33.99906 -118.19914 2673 ft 215 kts 171°
2026-04-25 23:00 33.98409 -118.19565 2368 ft 213 kts 174°
2026-04-25 23:00 33.96984 -118.19762 2141 ft 205 kts 207°
2026-04-25 23:00 33.96033 -118.20892 2030 ft 190 kts 242°
2026-04-25 23:00 33.95639 -118.22360 2017 ft 182 kts 254°
2026-04-25 23:01 33.95342 -118.23799 2017 ft 173 kts 253°
2026-04-25 23:01 33.95099 -118.25231 2012 ft 178 kts 257°
2026-04-25 23:01 33.94929 -118.26699 2018 ft 174 kts 259°
2026-04-25 23:01 33.94778 -118.28135 1783 ft 167 kts 261°
2026-04-25 23:02 33.94643 -118.29477 1587 ft 156 kts 259°
2026-04-25 23:02 33.94519 -118.30693 1381 ft 137 kts 259°
2026-04-25 23:02 33.94408 -118.31765 1174 ft 123 kts 260°
2026-04-25 23:02 33.94303 -118.32795 1043 ft 124 kts 260°
2026-04-25 23:03 33.94195 -118.33820 861 ft 123 kts 260°
2026-04-25 23:03 33.94091 -118.34842 728 ft 120 kts 261°
2026-04-25 23:03 33.93986 -118.35841 531 ft 123 kts 262°
2026-04-25 23:03 33.93884 -118.36841 385 ft 114 kts 266°
2026-04-25 23:04 33.93794 -118.37788 226 ft 112 kts 259°
2026-04-25 23:04 33.93726 -118.38408 125 ft 114 kts 260°
2026-04-25 23:04 33.93609 -118.39524 102 ft 75 kts 263°
2026-04-25 23:04 33.93565 -118.39973 102 ft 34 kts 265°
2026-04-25 23:05 33.93578 -118.40224 101 ft 30 kts 287°
2026-04-25 23:05 33.93626 -118.40400 100 ft 11 kts 276°